EN

Hourly Weather Komorow

Today, 29 November, Sunday

Time Temperature Precipitation Wind Pressure Humidity
00:00 -1°C° 0 mm 2 mps 742 mmHg 89%
01:00 -1°C° 0 mm 3 mps 742 mmHg 89%
02:00 -1°C° 0 mm 3 mps 742 mmHg 91%
03:00 -1°C° 0 mm 3 mps 741 mmHg 94%
04:00 -1°C° 0 mm 3 mps 741 mmHg 96%
05:00 -1°C° 0.3 mm 3 mps 741 mmHg 96%
06:00 -1°C° 0.3 mm 3 mps 741 mmHg 96%
07:00 0°C° 0.3 mm 3 mps 741 mmHg 96%
08:00 +1°C° 0.4 mm 2 mps 741 mmHg 96%
09:00 +1°C° 0.4 mm 2 mps 741 mmHg 95%
10:00 +1°C° 0.4 mm 2 mps 741 mmHg 95%
11:00 +1°C° 0.2 mm 2 mps 741 mmHg 94%
12:00 +1°C° 0.2 mm 2 mps 742 mmHg 94%
13:00 +1°C° 0.2 mm 2 mps 742 mmHg 93%
14:00 +1°C° 0.3 mm 2 mps 741 mmHg 94%
15:00 +1°C° 0.3 mm 2 mps 741 mmHg 96%
16:00 +1°C° 0.3 mm 2 mps 741 mmHg 97%
17:00 +1°C° 0.3 mm 2 mps 741 mmHg 96%
18:00 -1°C° 0.3 mm 2 mps 741 mmHg 96%
19:00 -1°C° 0.3 mm 3 mps 742 mmHg 96%
20:00 -1°C° 0.1 mm 2 mps 742 mmHg 96%
21:00 0°C° 0.1 mm 1 mps 742 mmHg 96%
22:00 -2°C° 0.1 mm 0 mps 742 mmHg 95%
23:00 -2°C° 0 mm 0 mps 742 mmHg 95%

Tomorrow, 30 November, Monday

Time Temperature Precipitation Wind Pressure Humidity
00:00 -2°C° 0 mm 0 mps 742 mmHg 95%
01:00 -1°C° 0 mm 1 mps 742 mmHg 94%
02:00 -1°C° 0 mm 1 mps 742 mmHg 95%
03:00 -1°C° 0 mm 1 mps 742 mmHg 95%
04:00 0°C° 0 mm 1 mps 742 mmHg 95%
05:00 0°C° 0.1 mm 1 mps 743 mmHg 96%
06:00 0°C° 0.1 mm 1 mps 743 mmHg 96%
07:00 +1°C° 0.1 mm 1 mps 743 mmHg 97%
08:00 +1°C° 0.1 mm 1 mps 744 mmHg 96%
09:00 +1°C° 0.1 mm 1 mps 744 mmHg 95%
10:00 +1°C° 0.1 mm 1 mps 744 mmHg 94%
11:00 +2°C° 0.1 mm 1 mps 744 mmHg 92%
12:00 +1°C° 0.1 mm 2 mps 744 mmHg 89%
13:00 +1°C° 0.1 mm 2 mps 744 mmHg 87%
14:00 +1°C° 0 mm 2 mps 744 mmHg 88%
15:00 +1°C° 0 mm 1 mps 743 mmHg 89%
16:00 +1°C° 0 mm 1 mps 743 mmHg 89%
17:00 +1°C° 0 mm 1 mps 743 mmHg 89%
18:00 +1°C° 0 mm 1 mps 743 mmHg 89%
19:00 +1°C° 0 mm 1 mps 743 mmHg 90%
20:00 -2°C° 0 mm 2 mps 743 mmHg 90%
21:00 -2°C° 0 mm 2 mps 743 mmHg 90%
22:00 -2°C° 0 mm 2 mps 743 mmHg 90%
23:00 -2°C° 0 mm 2 mps 742 mmHg 89%

Day after tomorrow, 1 December, Tuesday

Time Temperature Precipitation Wind Pressure Humidity
00:00 -4°C° 0 mm 3 mps 742 mmHg 89%
01:00 -4°C° 0 mm 3 mps 741 mmHg 88%
02:00 -4°C° 0 mm 3 mps 741 mmHg 88%
03:00 -4°C° 0 mm 3 mps 741 mmHg 88%
04:00 -4°C° 0 mm 3 mps 740 mmHg 89%
05:00 -4°C° 0 mm 3 mps 740 mmHg 89%
06:00 -4°C° 0 mm 3 mps 740 mmHg 89%
07:00 -4°C° 0 mm 3 mps 740 mmHg 89%
08:00 -4°C° 0 mm 3 mps 740 mmHg 87%
09:00 -3°C° 0 mm 4 mps 740 mmHg 84%
10:00 -2°C° 0 mm 4 mps 740 mmHg 82%
11:00 -2°C° 0 mm 4 mps 739 mmHg 80%
12:00 -2°C° 0 mm 4 mps 739 mmHg 79%
13:00 -1°C° 0 mm 4 mps 739 mmHg 77%
14:00 -2°C° 0 mm 4 mps 739 mmHg 80%
15:00 -1°C° 0 mm 3 mps 739 mmHg 82%
16:00 -2°C° 0 mm 3 mps 739 mmHg 84%
17:00 -2°C° 0 mm 3 mps 739 mmHg 84%
18:00 -2°C° 0 mm 3 mps 740 mmHg 85%
19:00 -3°C° 0 mm 2 mps 740 mmHg 85%
20:00 -3°C° 0 mm 2 mps 740 mmHg 86%
21:00 -3°C° 0 mm 2 mps 740 mmHg 86%
22:00 -3°C° 0 mm 2 mps 741 mmHg 87%
23:00 -4°C° 0 mm 2 mps 741 mmHg 87%

2 December, Wednesday

Time Temperature Precipitation Wind Pressure Humidity
00:00 -4°C° 0 mm 2 mps 741 mmHg 87%
01:00 -4°C° 0 mm 2 mps 741 mmHg 87%
02:00 -4°C° 0 mm 2 mps 741 mmHg 87%
03:00 -4°C° 0 mm 2 mps 741 mmHg 87%
04:00 -2°C° 0 mm 1 mps 741 mmHg 87%
05:00 -3°C° 0 mm 1 mps 741 mmHg 86%
06:00 -3°C° 0 mm 1 mps 741 mmHg 86%
07:00 -3°C° 0 mm 1 mps 741 mmHg 86%
08:00 -2°C° 0 mm 1 mps 741 mmHg 82%
09:00 -1°C° 0 mm 1 mps 741 mmHg 78%
10:00 0°C° 0 mm 1 mps 741 mmHg 75%
11:00 +1°C° 0 mm 1 mps 741 mmHg 72%
12:00 +1°C° 0 mm 1 mps 741 mmHg 70%
13:00 +2°C° 0 mm 1 mps 740 mmHg 68%
14:00 +1°C° 0 mm 1 mps 740 mmHg 72%
15:00 0°C° 0 mm 1 mps 740 mmHg 76%
16:00 -1°C° 0 mm 1 mps 740 mmHg 81%
17:00 -1°C° 0 mm 1 mps 740 mmHg 81%
18:00 -2°C° 0 mm 1 mps 740 mmHg 81%
19:00 -2°C° 0 mm 1 mps 740 mmHg 82%
20:00 -4°C° 0 mm 2 mps 740 mmHg 81%
21:00 -4°C° 0 mm 2 mps 740 mmHg 81%
22:00 -4°C° 0 mm 2 mps 740 mmHg 80%
23:00 -2°C° 0 mm 1 mps 740 mmHg 80%

3 December, Thursday

Time Temperature Precipitation Wind Pressure Humidity
00:00 -2°C° 0 mm 1 mps 739 mmHg 80%
01:00 -2°C° 0 mm 1 mps 739 mmHg 80%
02:00 -2°C° 0 mm 1 mps 739 mmHg 80%
03:00 -3°C° 0 mm 1 mps 739 mmHg 79%
04:00 -3°C° 0 mm 1 mps 739 mmHg 79%
05:00 -3°C° 0 mm 1 mps 739 mmHg 79%
06:00 -3°C° 0 mm 1 mps 738 mmHg 78%
07:00 -3°C° 0 mm 1 mps 738 mmHg 78%
08:00 -4°C° 0 mm 2 mps 738 mmHg 74%
09:00 -3°C° 0 mm 2 mps 738 mmHg 70%
10:00 -2°C° 0 mm 2 mps 738 mmHg 67%
11:00 -1°C° 0 mm 2 mps 738 mmHg 66%
12:00 +1°C° 0 mm 2 mps 737 mmHg 65%
13:00 0°C° 0 mm 3 mps 736 mmHg 64%
14:00 -1°C° 0 mm 2 mps 736 mmHg 69%
15:00 -2°C° 0 mm 2 mps 735 mmHg 74%
16:00 -3°C° 0 mm 2 mps 735 mmHg 79%
17:00 -3°C° 0 mm 2 mps 734 mmHg 78%
18:00 -3°C° 0 mm 2 mps 734 mmHg 78%
19:00 -3°C° 0 mm 2 mps 734 mmHg 78%
20:00 -3°C° 0 mm 2 mps 733 mmHg 78%
21:00 -2°C° 0 mm 2 mps 733 mmHg 79%
22:00 -2°C° 0 mm 2 mps 732 mmHg 79%
23:00 -2°C° 0 mm 2 mps 732 mmHg 79%

4 December, Friday

Time Temperature Precipitation Wind Pressure Humidity
00:00 -2°C° 0 mm 2 mps 731 mmHg 79%
01:00 -2°C° 0 mm 3 mps 730 mmHg 79%
02:00 -2°C° 0 mm 3 mps 730 mmHg 79%
03:00 -2°C° 0 mm 3 mps 729 mmHg 79%
04:00 -2°C° 0 mm 3 mps 728 mmHg 79%
05:00 -2°C° 0 mm 3 mps 728 mmHg 81%
06:00 -2°C° 0 mm 3 mps 727 mmHg 82%
07:00 -2°C° 0 mm 3 mps 727 mmHg 83%
08:00 -1°C° 0 mm 3 mps 726 mmHg 82%
09:00 0°C° 0 mm 3 mps 726 mmHg 82%
10:00 0°C° 0 mm 4 mps 726 mmHg 81%
11:00 +1°C° 0 mm 4 mps 725 mmHg 81%
12:00 +1°C° 0 mm 4 mps 725 mmHg 82%
13:00 +3°C° 0 mm 3 mps 724 mmHg 82%
14:00 +2°C° 0 mm 3 mps 724 mmHg 84%
15:00 +2°C° 0 mm 3 mps 724 mmHg 86%
16:00 +2°C° 0 mm 2 mps 723 mmHg 89%
17:00 +2°C° 0 mm 2 mps 723 mmHg 89%
18:00 +2°C° 0 mm 2 mps 723 mmHg 89%
19:00 +2°C° 0 mm 2 mps 723 mmHg 90%
20:00 +2°C° 0 mm 2 mps 722 mmHg 90%
21:00 +2°C° 0 mm 2 mps 722 mmHg 91%
22:00 +2°C° 0 mm 2 mps 722 mmHg 91%
23:00 +2°C° 0.2 mm 2 mps 722 mmHg 93%
Show more

We Need Your Consent

Meteoprog and our Service Providers may store and access personal data such as cookies, device identifiers or other similar technologies on your device and process such data to personalise content and ads, as well as provide social media features and to analyse the traffic.

  • Store and/or access information on your device

    Cookies, device identifiers or other information can be stored or accessed on your device for the purposes indicated above.

  • Personalised ads and content, ad and content measurement, audience insights, and products development

    Ads and content can be personalised based on a profile. More data can be added to better personalise ads and content. Ad and content performance can be measured. Insights about the audience who saw the ads and content can be derived. Such data can be used to develop or improve user’s experience, systems and software.

By clicking ‘I Agree’ you will allow the use of indicated cookies, device identifiers, web beacons or other similar technologies. Your settings can be changed in the browser on your device.

For certain purposes, legitimate interests may be relied on, rather than consent. You can read more about this in our Privacy and Cookie Policy.